Regional Weather Roundup
Issued by NWS Kansas City/Pleasant Hill, MO

Home | Current Version | Previous Version | Graphics & Text | Print | Product List | Glossary Off
Versions: 1 2 3 4 5 6 7 8 9 10 11 12 13 14 15 16 17 18 19 20 21 22 23 24 25 26 27 28 29 30 31 32 33 34 35 36 37 38 39 40 41 42 43 44 45 46 47 48 49 50

000
ASUS43 KEAX 280410
RWREAX

WEATHER ROUNDUP FOR EASTERN KANSAS AND NORTHWEST MISSOURI
NATIONAL WEATHER SERVICE KANSAS CITY/PLEASANT HILL MO
1100 PM CDT MON JUL 27 2015

KSZ040-057-103>105-MOZ028-029-037-043-280500-
...KANSAS CITY METROPOLITAN AREA...

CITY           SKY/WX    TMP DP  RH WIND       PRES   REMARKS
K.C. INTL      PTCLDY    81  73  76 SE6       29.90R
K.C. DOWNTOWN  CLEAR     88  73  61 SE9       29.89R HX  95
LEES SUMMIT    CLEAR     85  73  67 SE6       29.92R HX  91
OLATHE - IXD   CLEAR     81  74  79 SE7       29.92R
OLATHE - OJC   CLEAR     81  74  79 SE5       29.91R
LAWRENCE       CLEAR     78  74  87 SE6       29.89R

$$

MOZ001>008-011>017-020>025-030>033-038>040-044>046-053-054-280500-
...NORTHERN AND CENTRAL MISSOURI...

CITY           SKY/WX    TMP DP  RH WIND       PRES   REMARKS
ST. JOSEPH     CLEAR     78  72  81 SE12      29.89R
MOSBY          PTCLDY    79  72  78 E10       29.91R
WARRENSBURG    PTCLDY    81  73  78 SE3       29.91S
WHITEMAN AFB   MOCLDY    83  76  81 E8        29.91S HX  91
CLINTON          N/A     84  79  84 CALM      29.92F HX  96
SEDALIA        CLEAR     80  72  76 E9        29.95R
WARSAW         NOT AVBL
CHILLICOTHE      N/A     77  70  79 SE7       29.93F
KIRKSVILLE     CLEAR     74  71  91 SE8       29.95F

$$

MOZ041-047>049-056>058-063>065-088>090-097-280500-
...EASTERN AND SOUTHERN MISSOURI...

CITY           SKY/WX    TMP DP  RH WIND       PRES   REMARKS
ST. LOUIS INTL CLOUDY    78  69  73 SE9       29.96F
SPIRIT OF STL  MOCLDY    77  71  82 S5        29.95F
COLUMBIA       LGT RAIN  75  71  87 E12       29.96S
JEFFERSON CITY CLEAR     78  71  79 E5        29.94S
ROLLA          PTCLDY    79  74  84 E13       29.96S THUNDER
OSAGE BEACH    PTCLDY    81  77  89 S5        29.94F
SPRINGFIELD    CLEAR     83  75  77 SE8       29.97R HX  90
BRANSON        CLEAR     81  75  83 CALM      29.99S
JOPLIN         CLEAR     83  76  79 SE5       29.94R HX  91
WEST PLAINS    MOCLDY    76  72  87 CALM      30.01R

$$

IAZ060-094-KSZ022-034>040-054-083-096-NEZ052-066-093-280500-
...KANSAS...SOUTHEAST NEBRASKA AND IOWA...

CITY           SKY/WX    TMP DP  RH WIND       PRES   REMARKS
TOPEKA         CLEAR     83  73  72 SE7       29.88R
MANHATTAN      CLEAR     81  71  71 S5        29.85R
EMPORIA        CLEAR     81  72  74 SE9       29.89R
CHANUTE        CLEAR     82  75  79 S8        29.91R
WICHITA        PTCLDY    85  67  54 S15       29.87R
OMAHA          PTCLDY    78  71  79 SE18      29.85S
LINCOLN        CLEAR     82  77  84 SE16G24   29.83R HX  90
FALLS CITY     CLEAR     77  74  90 SE12      29.87R
LAMONI           N/A     75  71  87 SE9       29.92F
DES MOINES     PTCLDY    74  69  85 SE8       29.91S

$$



USA.gov is the U.S. government's official web portal to all federal, state and local government web resources and services.